owner,sensor,date,latitude,longitude,air_pressure(mBar),qcFlag 
COMPS,ioos:station:USF.COMPS:C10:1,2018-01-01T00:05:00Z,27.1690,-82.9260,1018.27,1111122 
COMPS,ioos:station:USF.COMPS:C10:1,2018-01-01T00:35:00Z,27.1690,-82.9260,1018.26,1111122 
COMPS,ioos:station:USF.COMPS:C10:1,2018-01-01T01:05:00Z,27.1690,-82.9260,1018.32,1111122 
COMPS,ioos:station:USF.COMPS:C10:1,2018-01-01T01:35:00Z,27.1690,-82.9260,1018.78,1111122 
COMPS,ioos:station:USF.COMPS:C10:1,2018-01-01T02:05:00Z,27.1690,-82.9260,1018.63,1111122 
COMPS,ioos:station:USF.COMPS:C10:1,2018-01-01T02:35:00Z,27.1690,-82.9260,1018.78,1111122 
COMPS,ioos:station:USF.COMPS:C10:1,2018-01-01T03:05:00Z,27.1690,-82.9260,1019.0,1111122 
COMPS,ioos:station:USF.COMPS:C10:1,2018-01-01T03:35:00Z,27.1690,-82.9260,1018.84,1111122 
COMPS,ioos:station:USF.COMPS:C10:1,2018-01-01T04:05:00Z,27.1690,-82.9260,1018.59,1111122 
COMPS,ioos:station:USF.COMPS:C10:1,2018-01-01T04:35:00Z,27.1690,-82.9260,1018.16,1111122 
COMPS,ioos:station:USF.COMPS:C10:1,2018-01-01T05:05:00Z,27.1690,-82.9260,1017.78,1111122 
COMPS,ioos:station:USF.COMPS:C10:1,2018-01-01T05:35:00Z,27.1690,-82.9260,1017.77,1111122 
COMPS,ioos:station:USF.COMPS:C10:1,2018-01-01T06:05:00Z,27.1690,-82.9260,1017.3,1111122 
COMPS,ioos:station:USF.COMPS:C10:1,2018-01-01T06:35:00Z,27.1690,-82.9260,1017.0,1111122 
COMPS,ioos:station:USF.COMPS:C10:1,2018-01-01T07:05:00Z,27.1690,-82.9260,1016.81,1111122 
COMPS,ioos:station:USF.COMPS:C10:1,2018-01-01T07:35:00Z,27.1690,-82.9260,1017.07,1111122 
COMPS,ioos:station:USF.COMPS:C10:1,2018-01-01T08:05:00Z,27.1690,-82.9260,1017.01,1111122 
COMPS,ioos:station:USF.COMPS:C10:1,2018-01-01T08:35:00Z,27.1690,-82.9260,1016.81,1111122 
COMPS,ioos:station:USF.COMPS:C10:1,2018-01-01T09:05:00Z,27.1690,-82.9260,1016.69,1111122 
COMPS,ioos:station:USF.COMPS:C10:1,2018-01-01T09:35:00Z,27.1690,-82.9260,1016.67,1111122 
COMPS,ioos:station:USF.COMPS:C10:1,2018-01-01T10:05:00Z,27.1690,-82.9260,1016.52,1111122 
COMPS,ioos:station:USF.COMPS:C10:1,2018-01-01T10:35:00Z,27.1690,-82.9260,1016.45,1111122 
COMPS,ioos:station:USF.COMPS:C10:1,2018-01-01T11:05:00Z,27.1690,-82.9260,1016.63,1111122 
COMPS,ioos:station:USF.COMPS:C10:1,2018-01-01T11:35:00Z,27.1690,-82.9260,1016.8,1111122 
COMPS,ioos:station:USF.COMPS:C10:1,2018-01-01T12:05:00Z,27.1690,-82.9260,1017.01,1111122 
COMPS,ioos:station:USF.COMPS:C10:1,2018-01-01T12:35:00Z,27.1690,-82.9260,1017.43,1111122 
COMPS,ioos:station:USF.COMPS:C10:1,2018-01-01T13:05:00Z,27.1690,-82.9260,1017.74,1111122 
COMPS,ioos:station:USF.COMPS:C10:1,2018-01-01T13:35:00Z,27.1690,-82.9260,1018.05,1111122 
COMPS,ioos:station:USF.COMPS:C10:1,2018-01-01T14:05:00Z,27.1690,-82.9260,1018.72,1111122 
COMPS,ioos:station:USF.COMPS:C10:1,2018-01-01T14:35:00Z,27.1690,-82.9260,1019.39,1111122 
COMPS,ioos:station:USF.COMPS:C10:1,2018-01-01T15:05:00Z,27.1690,-82.9260,1019.74,1111122 
COMPS,ioos:station:USF.COMPS:C10:1,2018-01-01T15:35:00Z,27.1690,-82.9260,1020.13,1111122 
COMPS,ioos:station:USF.COMPS:C10:1,2018-01-01T16:05:00Z,27.1690,-82.9260,1020.42,1111122 
COMPS,ioos:station:USF.COMPS:C10:1,2018-01-01T16:35:00Z,27.1690,-82.9260,1020.33,1111122 
COMPS,ioos:station:USF.COMPS:C10:1,2018-01-01T17:05:00Z,27.1690,-82.9260,1019.94,1111122 
COMPS,ioos:station:USF.COMPS:C10:1,2018-01-01T17:35:00Z,27.1690,-82.9260,1019.37,1111122 
COMPS,ioos:station:USF.COMPS:C10:1,2018-01-01T18:05:00Z,27.1690,-82.9260,1019.0,1111122 
COMPS,ioos:station:USF.COMPS:C10:1,2018-01-01T18:35:00Z,27.1690,-82.9260,1018.61,1111122 
COMPS,ioos:station:USF.COMPS:C10:1,2018-01-01T19:05:00Z,27.1690,-82.9260,1018.57,1111122 
COMPS,ioos:station:USF.COMPS:C10:1,2018-01-01T19:35:00Z,27.1690,-82.9260,1018.21,1111122 
COMPS,ioos:station:USF.COMPS:C10:1,2018-01-01T20:05:00Z,27.1690,-82.9260,1018.38,1111122 
COMPS,ioos:station:USF.COMPS:C10:1,2018-01-01T20:35:00Z,27.1690,-82.9260,1018.66,1111122 
COMPS,ioos:station:USF.COMPS:C10:1,2018-01-01T21:05:00Z,27.1690,-82.9260,1018.81,1111122 
COMPS,ioos:station:USF.COMPS:C10:1,2018-01-01T21:35:00Z,27.1690,-82.9260,1019.23,1111122 
COMPS,ioos:station:USF.COMPS:C10:1,2018-01-01T22:05:00Z,27.1690,-82.9260,1019.57,1111122 
COMPS,ioos:station:USF.COMPS:C10:1,2018-01-01T22:35:00Z,27.1690,-82.9260,1020.01,1111122 
COMPS,ioos:station:USF.COMPS:C10:1,2018-01-01T23:05:00Z,27.1690,-82.9260,1020.39,1111122 
COMPS,ioos:station:USF.COMPS:C10:1,2018-01-01T23:35:00Z,27.1690,-82.9260,1020.69,1111122 
COMPS,ioos:station:USF.COMPS:C10:1,2018-01-02T00:05:00Z,27.1690,-82.9260,1021.3,1111122 
COMPS,ioos:station:USF.COMPS:C10:1,2018-01-02T00:35:00Z,27.1690,-82.9260,1021.46,1111122 
COMPS,ioos:station:USF.COMPS:C10:1,2018-01-02T01:05:00Z,27.1690,-82.9260,1021.49,1111122 
COMPS,ioos:station:USF.COMPS:C10:1,2018-01-02T01:35:00Z,27.1690,-82.9260,1021.77,1111122 
COMPS,ioos:station:USF.COMPS:C10:1,2018-01-02T02:05:00Z,27.1690,-82.9260,1022.02,1111122 
COMPS,ioos:station:USF.COMPS:C10:1,2018-01-02T02:35:00Z,27.1690,-82.9260,1022.33,1111122 
COMPS,ioos:station:USF.COMPS:C10:1,2018-01-02T03:05:00Z,27.1690,-82.9260,1022.36,1111122 
COMPS,ioos:station:USF.COMPS:C10:1,2018-01-02T03:35:00Z,27.1690,-82.9260,1022.76,1111122 
COMPS,ioos:station:USF.COMPS:C10:1,2018-01-02T04:05:00Z,27.1690,-82.9260,1022.95,1111122 
COMPS,ioos:station:USF.COMPS:C10:1,2018-01-02T04:35:00Z,27.1690,-82.9260,1023.05,1111122 
COMPS,ioos:station:USF.COMPS:C10:1,2018-01-02T05:05:00Z,27.1690,-82.9260,1022.89,1111122 
COMPS,ioos:station:USF.COMPS:C10:1,2018-01-02T05:35:00Z,27.1690,-82.9260,1022.64,1111122 
COMPS,ioos:station:USF.COMPS:C10:1,2018-01-02T06:05:00Z,27.1690,-82.9260,1022.62,1111122 
COMPS,ioos:station:USF.COMPS:C10:1,2018-01-02T06:35:00Z,27.1690,-82.9260,1022.07,1111122 
COMPS,ioos:station:USF.COMPS:C10:1,2018-01-02T07:05:00Z,27.1690,-82.9260,1022.06,1111122 
COMPS,ioos:station:USF.COMPS:C10:1,2018-01-02T07:35:00Z,27.1690,-82.9260,1021.94,1111122 
COMPS,ioos:station:USF.COMPS:C10:1,2018-01-02T08:05:00Z,27.1690,-82.9260,1021.92,1111122 
COMPS,ioos:station:USF.COMPS:C10:1,2018-01-02T08:35:00Z,27.1690,-82.9260,1021.93,1111122 
COMPS,ioos:station:USF.COMPS:C10:1,2018-01-02T09:05:00Z,27.1690,-82.9260,1022.14,1111122 
COMPS,ioos:station:USF.COMPS:C10:1,2018-01-02T09:35:00Z,27.1690,-82.9260,1022.03,1111122 
COMPS,ioos:station:USF.COMPS:C10:1,2018-01-02T10:05:00Z,27.1690,-82.9260,1022.14,1111122 
COMPS,ioos:station:USF.COMPS:C10:1,2018-01-02T10:35:00Z,27.1690,-82.9260,1021.96,1111122 
COMPS,ioos:station:USF.COMPS:C10:1,2018-01-02T11:05:00Z,27.1690,-82.9260,1022.59,1111122 
COMPS,ioos:station:USF.COMPS:C10:1,2018-01-02T11:35:00Z,27.1690,-82.9260,1022.97,1111122 
COMPS,ioos:station:USF.COMPS:C10:1,2018-01-02T12:05:00Z,27.1690,-82.9260,1023.42,1111122 
COMPS,ioos:station:USF.COMPS:C10:1,2018-01-02T12:35:00Z,27.1690,-82.9260,1023.71,1111122 
COMPS,ioos:station:USF.COMPS:C10:1,2018-01-02T13:05:00Z,27.1690,-82.9260,1023.88,1111122 
COMPS,ioos:station:USF.COMPS:C10:1,2018-01-02T13:35:00Z,27.1690,-82.9260,1023.72,1111122 
COMPS,ioos:station:USF.COMPS:C10:1,2018-01-02T14:05:00Z,27.1690,-82.9260,1023.56,1111122 
COMPS,ioos:station:USF.COMPS:C10:1,2018-01-02T14:35:00Z,27.1690,-82.9260,1023.65,1111122 
COMPS,ioos:station:USF.COMPS:C10:1,2018-01-02T15:05:00Z,27.1690,-82.9260,1023.43,1111122 
COMPS,ioos:station:USF.COMPS:C10:1,2018-01-02T15:35:00Z,27.1690,-82.9260,1023.7,1111122 
COMPS,ioos:station:USF.COMPS:C10:1,2018-01-02T16:05:00Z,27.1690,-82.9260,1023.66,1111122 
COMPS,ioos:station:USF.COMPS:C10:1,2018-01-02T16:35:00Z,27.1690,-82.9260,1023.2,1111122 
COMPS,ioos:station:USF.COMPS:C10:1,2018-01-02T17:05:00Z,27.1690,-82.9260,1022.71,1111122 
COMPS,ioos:station:USF.COMPS:C10:1,2018-01-02T17:35:00Z,27.1690,-82.9260,1022.14,1111122 
COMPS,ioos:station:USF.COMPS:C10:1,2018-01-02T18:05:00Z,27.1690,-82.9260,1021.33,1111122 
COMPS,ioos:station:USF.COMPS:C10:1,2018-01-02T18:35:00Z,27.1690,-82.9260,1020.82,1111122 
COMPS,ioos:station:USF.COMPS:C10:1,2018-01-02T19:05:00Z,27.1690,-82.9260,1020.61,1111122 
COMPS,ioos:station:USF.COMPS:C10:1,2018-01-02T19:35:00Z,27.1690,-82.9260,1020.47,1111122 
COMPS,ioos:station:USF.COMPS:C10:1,2018-01-02T20:05:00Z,27.1690,-82.9260,1019.99,1111122 
COMPS,ioos:station:USF.COMPS:C10:1,2018-01-02T20:35:00Z,27.1690,-82.9260,1019.92,1111122 
COMPS,ioos:station:USF.COMPS:C10:1,2018-01-02T21:05:00Z,27.1690,-82.9260,1020.01,1111122 
COMPS,ioos:station:USF.COMPS:C10:1,2018-01-02T21:35:00Z,27.1690,-82.9260,1019.96,1111122 
COMPS,ioos:station:USF.COMPS:C10:1,2018-01-02T22:05:00Z,27.1690,-82.9260,1019.89,1111122 
COMPS,ioos:station:USF.COMPS:C10:1,2018-01-02T22:35:00Z,27.1690,-82.9260,1019.92,1111122 
COMPS,ioos:station:USF.COMPS:C10:1,2018-01-02T23:05:00Z,27.1690,-82.9260,1020.14,1111122 
COMPS,ioos:station:USF.COMPS:C10:1,2018-01-02T23:35:00Z,27.1690,-82.9260,1020.06,1111122 
COMPS,ioos:station:USF.COMPS:C10:1,2018-01-03T00:05:00Z,27.1690,-82.9260,1020.43,1111122 
COMPS,ioos:station:USF.COMPS:C10:1,2018-01-03T00:35:00Z,27.1690,-82.9260,1020.51,1111122 
COMPS,ioos:station:USF.COMPS:C10:1,2018-01-03T01:05:00Z,27.1690,-82.9260,1020.1,1111122 
COMPS,ioos:station:USF.COMPS:C10:1,2018-01-03T01:35:00Z,27.1690,-82.9260,1020.03,1111122 
COMPS,ioos:station:USF.COMPS:C10:1,2018-01-03T02:05:00Z,27.1690,-82.9260,1020.01,1111122 
COMPS,ioos:station:USF.COMPS:C10:1,2018-01-03T02:35:00Z,27.1690,-82.9260,1019.3,1111122 
COMPS,ioos:station:USF.COMPS:C10:1,2018-01-03T03:05:00Z,27.1690,-82.9260,1019.36,1111122 
COMPS,ioos:station:USF.COMPS:C10:1,2018-01-03T03:35:00Z,27.1690,-82.9260,1019.61,1111122 
COMPS,ioos:station:USF.COMPS:C10:1,2018-01-03T04:05:00Z,27.1690,-82.9260,1019.43,1111122 
COMPS,ioos:station:USF.COMPS:C10:1,2018-01-03T04:35:00Z,27.1690,-82.9260,1019.07,1111122 
COMPS,ioos:station:USF.COMPS:C10:1,2018-01-03T05:05:00Z,27.1690,-82.9260,1018.64,1111122 
COMPS,ioos:station:USF.COMPS:C10:1,2018-01-03T05:35:00Z,27.1690,-82.9260,1017.84,1111122 
COMPS,ioos:station:USF.COMPS:C10:1,2018-01-03T06:05:00Z,27.1690,-82.9260,1017.13,1111122 
COMPS,ioos:station:USF.COMPS:C10:1,2018-01-03T06:35:00Z,27.1690,-82.9260,1017.69,1111122 
COMPS,ioos:station:USF.COMPS:C10:1,2018-01-03T07:05:00Z,27.1690,-82.9260,1017.34,1111122 
COMPS,ioos:station:USF.COMPS:C10:1,2018-01-03T07:35:00Z,27.1690,-82.9260,1017.39,1111122 
COMPS,ioos:station:USF.COMPS:C10:1,2018-01-03T08:05:00Z,27.1690,-82.9260,1016.85,1111122 
COMPS,ioos:station:USF.COMPS:C10:1,2018-01-03T08:35:00Z,27.1690,-82.9260,1016.87,1111122 
COMPS,ioos:station:USF.COMPS:C10:1,2018-01-03T09:05:00Z,27.1690,-82.9260,1016.37,1111122 
COMPS,ioos:station:USF.COMPS:C10:1,2018-01-03T09:35:00Z,27.1690,-82.9260,1016.14,1111122 
COMPS,ioos:station:USF.COMPS:C10:1,2018-01-03T10:05:00Z,27.1690,-82.9260,1015.78,1111122 
COMPS,ioos:station:USF.COMPS:C10:1,2018-01-03T10:35:00Z,27.1690,-82.9260,1015.46,1111122 
COMPS,ioos:station:USF.COMPS:C10:1,2018-01-03T11:05:00Z,27.1690,-82.9260,1015.74,1111122 
COMPS,ioos:station:USF.COMPS:C10:1,2018-01-03T11:35:00Z,27.1690,-82.9260,1016.14,1111122 
COMPS,ioos:station:USF.COMPS:C10:1,2018-01-03T12:05:00Z,27.1690,-82.9260,1015.95,1111122 
COMPS,ioos:station:USF.COMPS:C10:1,2018-01-03T12:35:00Z,27.1690,-82.9260,1016.38,1111122 
COMPS,ioos:station:USF.COMPS:C10:1,2018-01-03T13:05:00Z,27.1690,-82.9260,1016.89,1111122 
COMPS,ioos:station:USF.COMPS:C10:1,2018-01-03T13:35:00Z,27.1690,-82.9260,1017.52,1111122 
COMPS,ioos:station:USF.COMPS:C10:1,2018-01-03T14:05:00Z,27.1690,-82.9260,1017.42,1111122 
COMPS,ioos:station:USF.COMPS:C10:1,2018-01-03T14:35:00Z,27.1690,-82.9260,1017.45,1111122 
COMPS,ioos:station:USF.COMPS:C10:1,2018-01-03T15:05:00Z,27.1690,-82.9260,1017.81,1111122 
COMPS,ioos:station:USF.COMPS:C10:1,2018-01-03T15:35:00Z,27.1690,-82.9260,1017.81,1111122 
COMPS,ioos:station:USF.COMPS:C10:1,2018-01-03T16:05:00Z,27.1690,-82.9260,1017.37,1111122 
COMPS,ioos:station:USF.COMPS:C10:1,2018-01-03T16:35:00Z,27.1690,-82.9260,1016.88,1111122 
COMPS,ioos:station:USF.COMPS:C10:1,2018-01-03T17:05:00Z,27.1690,-82.9260,1016.17,1111122 
COMPS,ioos:station:USF.COMPS:C10:1,2018-01-03T17:35:00Z,27.1690,-82.9260,1015.65,1111122 
COMPS,ioos:station:USF.COMPS:C10:1,2018-01-03T18:05:00Z,27.1690,-82.9260,1014.74,1111122 
COMPS,ioos:station:USF.COMPS:C10:1,2018-01-03T18:35:00Z,27.1690,-82.9260,1014.11,1111122 
COMPS,ioos:station:USF.COMPS:C10:1,2018-01-03T19:05:00Z,27.1690,-82.9260,1013.94,1111122 
COMPS,ioos:station:USF.COMPS:C10:1,2018-01-03T19:35:00Z,27.1690,-82.9260,1013.55,1111122 
COMPS,ioos:station:USF.COMPS:C10:1,2018-01-03T20:05:00Z,27.1690,-82.9260,1013.55,1111122 
COMPS,ioos:station:USF.COMPS:C10:1,2018-01-03T20:35:00Z,27.1690,-82.9260,1013.58,1111122 
COMPS,ioos:station:USF.COMPS:C10:1,2018-01-03T21:05:00Z,27.1690,-82.9260,1014.11,1111122 
COMPS,ioos:station:USF.COMPS:C10:1,2018-01-03T21:35:00Z,27.1690,-82.9260,1014.34,1111122 
COMPS,ioos:station:USF.COMPS:C10:1,2018-01-03T22:05:00Z,27.1690,-82.9260,1014.6,1111122 
COMPS,ioos:station:USF.COMPS:C10:1,2018-01-03T22:35:00Z,27.1690,-82.9260,1014.42,1111122 
COMPS,ioos:station:USF.COMPS:C10:1,2018-01-03T23:05:00Z,27.1690,-82.9260,1014.47,1111122 
COMPS,ioos:station:USF.COMPS:C10:1,2018-01-03T23:35:00Z,27.1690,-82.9260,1014.9,1111122 
COMPS,ioos:station:USF.COMPS:C10:1,2018-01-04T00:05:00Z,27.1690,-82.9260,1015.08,1111122 
COMPS,ioos:station:USF.COMPS:C10:1,2018-01-04T00:35:00Z,27.1690,-82.9260,1015.53,1111122 
COMPS,ioos:station:USF.COMPS:C10:1,2018-01-04T01:05:00Z,27.1690,-82.9260,1015.79,1111122 
COMPS,ioos:station:USF.COMPS:C10:1,2018-01-04T01:35:00Z,27.1690,-82.9260,1016.01,1111122 
COMPS,ioos:station:USF.COMPS:C10:1,2018-01-04T02:05:00Z,27.1690,-82.9260,1016.37,1111122 
COMPS,ioos:station:USF.COMPS:C10:1,2018-01-04T02:35:00Z,27.1690,-82.9260,1016.34,1111122 
COMPS,ioos:station:USF.COMPS:C10:1,2018-01-04T03:05:00Z,27.1690,-82.9260,1016.35,1111122 
COMPS,ioos:station:USF.COMPS:C10:1,2018-01-04T03:35:00Z,27.1690,-82.9260,1016.65,1111122 
COMPS,ioos:station:USF.COMPS:C10:1,2018-01-04T04:05:00Z,27.1690,-82.9260,1016.79,1111122 
COMPS,ioos:station:USF.COMPS:C10:1,2018-01-04T04:35:00Z,27.1690,-82.9260,1016.79,1111122 
COMPS,ioos:station:USF.COMPS:C10:1,2018-01-04T05:05:00Z,27.1690,-82.9260,1016.92,1111122 
COMPS,ioos:station:USF.COMPS:C10:1,2018-01-04T05:35:00Z,27.1690,-82.9260,1016.82,1111122 
COMPS,ioos:station:USF.COMPS:C10:1,2018-01-04T06:05:00Z,27.1690,-82.9260,1016.86,1111122 
COMPS,ioos:station:USF.COMPS:C10:1,2018-01-04T06:35:00Z,27.1690,-82.9260,1016.93,1111122 
COMPS,ioos:station:USF.COMPS:C10:1,2018-01-04T07:05:00Z,27.1690,-82.9260,1017.07,1111122 
COMPS,ioos:station:USF.COMPS:C10:1,2018-01-04T07:35:00Z,27.1690,-82.9260,1017.07,1111122 
COMPS,ioos:station:USF.COMPS:C10:1,2018-01-04T08:05:00Z,27.1690,-82.9260,1017.22,1111122 
COMPS,ioos:station:USF.COMPS:C10:1,2018-01-04T08:35:00Z,27.1690,-82.9260,1017.4,1111122 
COMPS,ioos:station:USF.COMPS:C10:1,2018-01-04T09:05:00Z,27.1690,-82.9260,1017.53,1111122 
COMPS,ioos:station:USF.COMPS:C10:1,2018-01-04T09:35:00Z,27.1690,-82.9260,1017.54,1111122 
COMPS,ioos:station:USF.COMPS:C10:1,2018-01-04T10:05:00Z,27.1690,-82.9260,1017.77,1111122 
COMPS,ioos:station:USF.COMPS:C10:1,2018-01-04T10:35:00Z,27.1690,-82.9260,1017.75,1111122 
COMPS,ioos:station:USF.COMPS:C10:1,2018-01-04T11:05:00Z,27.1690,-82.9260,1018.15,1111122 
COMPS,ioos:station:USF.COMPS:C10:1,2018-01-04T11:35:00Z,27.1690,-82.9260,1018.56,1111122 
COMPS,ioos:station:USF.COMPS:C10:1,2018-01-04T12:05:00Z,27.1690,-82.9260,1018.98,1111122 
COMPS,ioos:station:USF.COMPS:C10:1,2018-01-04T12:35:00Z,27.1690,-82.9260,1019.25,1111122 
COMPS,ioos:station:USF.COMPS:C10:1,2018-01-04T13:05:00Z,27.1690,-82.9260,1019.68,1111122 
COMPS,ioos:station:USF.COMPS:C10:1,2018-01-04T13:35:00Z,27.1690,-82.9260,1019.71,1111122 
COMPS,ioos:station:USF.COMPS:C10:1,2018-01-04T14:05:00Z,27.1690,-82.9260,1019.98,1111122 
COMPS,ioos:station:USF.COMPS:C10:1,2018-01-04T14:35:00Z,27.1690,-82.9260,1020.46,1111122 
COMPS,ioos:station:USF.COMPS:C10:1,2018-01-04T15:05:00Z,27.1690,-82.9260,1020.63,1111122 
COMPS,ioos:station:USF.COMPS:C10:1,2018-01-04T15:35:00Z,27.1690,-82.9260,1020.71,1111122 
COMPS,ioos:station:USF.COMPS:C10:1,2018-01-04T16:05:00Z,27.1690,-82.9260,1020.8,1111122 
COMPS,ioos:station:USF.COMPS:C10:1,2018-01-04T16:35:00Z,27.1690,-82.9260,1020.57,1111122 
COMPS,ioos:station:USF.COMPS:C10:1,2018-01-04T17:05:00Z,27.1690,-82.9260,1020.24,1111122 
COMPS,ioos:station:USF.COMPS:C10:1,2018-01-04T17:35:00Z,27.1690,-82.9260,1019.99,1111122 
COMPS,ioos:station:USF.COMPS:C10:1,2018-01-04T18:05:00Z,27.1690,-82.9260,1019.15,1111122 
COMPS,ioos:station:USF.COMPS:C10:1,2018-01-04T18:35:00Z,27.1690,-82.9260,1018.7,1111122 
COMPS,ioos:station:USF.COMPS:C10:1,2018-01-04T19:05:00Z,27.1690,-82.9260,1018.69,1111122 
COMPS,ioos:station:USF.COMPS:C10:1,2018-01-04T19:35:00Z,27.1690,-82.9260,1018.35,1111122 
COMPS,ioos:station:USF.COMPS:C10:1,2018-01-04T20:05:00Z,27.1690,-82.9260,1018.28,1111122 
COMPS,ioos:station:USF.COMPS:C10:1,2018-01-04T20:35:00Z,27.1690,-82.9260,1018.22,1111122 
COMPS,ioos:station:USF.COMPS:C10:1,2018-01-04T21:05:00Z,27.1690,-82.9260,1018.58,1111122 
COMPS,ioos:station:USF.COMPS:C10:1,2018-01-04T21:35:00Z,27.1690,-82.9260,1018.61,1111122 
COMPS,ioos:station:USF.COMPS:C10:1,2018-01-04T22:05:00Z,27.1690,-82.9260,1018.57,1111122 
COMPS,ioos:station:USF.COMPS:C10:1,2018-01-04T22:35:00Z,27.1690,-82.9260,1018.8,1111122 
COMPS,ioos:station:USF.COMPS:C10:1,2018-01-04T23:05:00Z,27.1690,-82.9260,1019.08,1111122 
COMPS,ioos:station:USF.COMPS:C10:1,2018-01-04T23:35:00Z,27.1690,-82.9260,1019.34,1111122 
COMPS,ioos:station:USF.COMPS:C10:1,2018-01-05T00:05:00Z,27.1690,-82.9260,1019.64,1111122 
COMPS,ioos:station:USF.COMPS:C10:1,2018-01-05T00:35:00Z,27.1690,-82.9260,1019.97,1111122 
COMPS,ioos:station:USF.COMPS:C10:1,2018-01-05T01:05:00Z,27.1690,-82.9260,1020.37,1111122 
COMPS,ioos:station:USF.COMPS:C10:1,2018-01-05T01:35:00Z,27.1690,-82.9260,1020.59,1111122 
COMPS,ioos:station:USF.COMPS:C10:1,2018-01-05T02:05:00Z,27.1690,-82.9260,1020.89,1111122 
COMPS,ioos:station:USF.COMPS:C10:1,2018-01-05T02:35:00Z,27.1690,-82.9260,1021.17,1111122 
COMPS,ioos:station:USF.COMPS:C10:1,2018-01-05T03:05:00Z,27.1690,-82.9260,1021.57,1111122 
COMPS,ioos:station:USF.COMPS:C10:1,2018-01-05T03:35:00Z,27.1690,-82.9260,1021.84,1111122 
COMPS,ioos:station:USF.COMPS:C10:1,2018-01-05T04:05:00Z,27.1690,-82.9260,1021.91,1111122 
COMPS,ioos:station:USF.COMPS:C10:1,2018-01-05T04:35:00Z,27.1690,-82.9260,1021.95,1111122 
COMPS,ioos:station:USF.COMPS:C10:1,2018-01-05T05:05:00Z,27.1690,-82.9260,1021.82,1111122 
COMPS,ioos:station:USF.COMPS:C10:1,2018-01-05T05:35:00Z,27.1690,-82.9260,1021.87,1111122 
COMPS,ioos:station:USF.COMPS:C10:1,2018-01-05T06:05:00Z,27.1690,-82.9260,1022.04,1111122 
COMPS,ioos:station:USF.COMPS:C10:1,2018-01-05T06:35:00Z,27.1690,-82.9260,1021.75,1111122 
COMPS,ioos:station:USF.COMPS:C10:1,2018-01-05T07:05:00Z,27.1690,-82.9260,1021.71,1111122 
COMPS,ioos:station:USF.COMPS:C10:1,2018-01-05T07:35:00Z,27.1690,-82.9260,1021.76,1111122 
COMPS,ioos:station:USF.COMPS:C10:1,2018-01-05T08:05:00Z,27.1690,-82.9260,1021.84,1111122 
COMPS,ioos:station:USF.COMPS:C10:1,2018-01-05T08:35:00Z,27.1690,-82.9260,1021.88,1111122 
COMPS,ioos:station:USF.COMPS:C10:1,2018-01-05T09:05:00Z,27.1690,-82.9260,1021.87,1111122 
COMPS,ioos:station:USF.COMPS:C10:1,2018-01-05T09:35:00Z,27.1690,-82.9260,1021.9,1111122 
COMPS,ioos:station:USF.COMPS:C10:1,2018-01-05T10:05:00Z,27.1690,-82.9260,1022.44,1111122 
COMPS,ioos:station:USF.COMPS:C10:1,2018-01-05T10:35:00Z,27.1690,-82.9260,1023.05,1111122 
COMPS,ioos:station:USF.COMPS:C10:1,2018-01-05T11:05:00Z,27.1690,-82.9260,1023.21,1111122 
COMPS,ioos:station:USF.COMPS:C10:1,2018-01-05T11:35:00Z,27.1690,-82.9260,1023.89,1111122 
COMPS,ioos:station:USF.COMPS:C10:1,2018-01-05T12:05:00Z,27.1690,-82.9260,1024.49,1111122 
COMPS,ioos:station:USF.COMPS:C10:1,2018-01-05T12:35:00Z,27.1690,-82.9260,1025.19,1111122 
COMPS,ioos:station:USF.COMPS:C10:1,2018-01-05T13:05:00Z,27.1690,-82.9260,1025.58,1111122 
COMPS,ioos:station:USF.COMPS:C10:1,2018-01-05T13:35:00Z,27.1690,-82.9260,1026.03,1111122 
COMPS,ioos:station:USF.COMPS:C10:1,2018-01-05T14:05:00Z,27.1690,-82.9260,1026.36,1111122 
COMPS,ioos:station:USF.COMPS:C10:1,2018-01-05T14:35:00Z,27.1690,-82.9260,1026.74,1111122 
COMPS,ioos:station:USF.COMPS:C10:1,2018-01-05T15:05:00Z,27.1690,-82.9260,1027.14,1111122 
COMPS,ioos:station:USF.COMPS:C10:1,2018-01-05T15:35:00Z,27.1690,-82.9260,1027.19,1111122 
COMPS,ioos:station:USF.COMPS:C10:1,2018-01-05T16:05:00Z,27.1690,-82.9260,1026.75,1111122 
COMPS,ioos:station:USF.COMPS:C10:1,2018-01-05T16:35:00Z,27.1690,-82.9260,1026.67,1111122 
COMPS,ioos:station:USF.COMPS:C10:1,2018-01-05T17:05:00Z,27.1690,-82.9260,1026.19,1111122 
COMPS,ioos:station:USF.COMPS:C10:1,2018-01-05T17:35:00Z,27.1690,-82.9260,1025.91,1111122 
COMPS,ioos:station:USF.COMPS:C10:1,2018-01-05T18:05:00Z,27.1690,-82.9260,1025.41,1111122 
COMPS,ioos:station:USF.COMPS:C10:1,2018-01-05T18:35:00Z,27.1690,-82.9260,1024.88,1111122 
COMPS,ioos:station:USF.COMPS:C10:1,2018-01-05T19:05:00Z,27.1690,-82.9260,1024.88,1111122 
COMPS,ioos:station:USF.COMPS:C10:1,2018-01-05T19:35:00Z,27.1690,-82.9260,1024.69,1111122 
COMPS,ioos:station:USF.COMPS:C10:1,2018-01-05T20:05:00Z,27.1690,-82.9260,1024.73,1111122 
COMPS,ioos:station:USF.COMPS:C10:1,2018-01-05T20:35:00Z,27.1690,-82.9260,1024.92,1111122 
COMPS,ioos:station:USF.COMPS:C10:1,2018-01-05T21:05:00Z,27.1690,-82.9260,1025.01,1111122 
COMPS,ioos:station:USF.COMPS:C10:1,2018-01-05T21:35:00Z,27.1690,-82.9260,1024.99,1111122 
COMPS,ioos:station:USF.COMPS:C10:1,2018-01-05T22:05:00Z,27.1690,-82.9260,1025.35,1111122 
COMPS,ioos:station:USF.COMPS:C10:1,2018-01-05T22:35:00Z,27.1690,-82.9260,1025.45,1111122 
COMPS,ioos:station:USF.COMPS:C10:1,2018-01-05T23:05:00Z,27.1690,-82.9260,1025.49,1111122 
COMPS,ioos:station:USF.COMPS:C10:1,2018-01-05T23:35:00Z,27.1690,-82.9260,1025.63,1111122 
COMPS,ioos:station:USF.COMPS:C10:1,2018-01-06T00:05:00Z,27.1690,-82.9260,1026.05,1111122 
COMPS,ioos:station:USF.COMPS:C10:1,2018-01-06T00:35:00Z,27.1690,-82.9260,1026.13,1111122 
COMPS,ioos:station:USF.COMPS:C10:1,2018-01-06T01:05:00Z,27.1690,-82.9260,1026.58,1111122 
COMPS,ioos:station:USF.COMPS:C10:1,2018-01-06T01:35:00Z,27.1690,-82.9260,1026.56,1111122 
COMPS,ioos:station:USF.COMPS:C10:1,2018-01-06T02:05:00Z,27.1690,-82.9260,1026.79,1111122 
COMPS,ioos:station:USF.COMPS:C10:1,2018-01-06T02:35:00Z,27.1690,-82.9260,1026.9,1111122 
COMPS,ioos:station:USF.COMPS:C10:1,2018-01-06T03:05:00Z,27.1690,-82.9260,1027.07,1111122 
COMPS,ioos:station:USF.COMPS:C10:1,2018-01-06T03:35:00Z,27.1690,-82.9260,1027.31,1111122 
COMPS,ioos:station:USF.COMPS:C10:1,2018-01-06T04:05:00Z,27.1690,-82.9260,1027.28,1111122 
COMPS,ioos:station:USF.COMPS:C10:1,2018-01-06T04:35:00Z,27.1690,-82.9260,1027.32,1111122 
COMPS,ioos:station:USF.COMPS:C10:1,2018-01-06T05:05:00Z,27.1690,-82.9260,1027.32,1111122 
COMPS,ioos:station:USF.COMPS:C10:1,2018-01-06T05:35:00Z,27.1690,-82.9260,1026.92,1111122 
COMPS,ioos:station:USF.COMPS:C10:1,2018-01-06T06:05:00Z,27.1690,-82.9260,1026.44,1111122 
COMPS,ioos:station:USF.COMPS:C10:1,2018-01-06T06:35:00Z,27.1690,-82.9260,1026.44,1111122 
COMPS,ioos:station:USF.COMPS:C10:1,2018-01-06T07:05:00Z,27.1690,-82.9260,1026.23,1111122 
COMPS,ioos:station:USF.COMPS:C10:1,2018-01-06T07:35:00Z,27.1690,-82.9260,1026.17,1111122 
COMPS,ioos:station:USF.COMPS:C10:1,2018-01-06T08:05:00Z,27.1690,-82.9260,1026.17,1111122 
COMPS,ioos:station:USF.COMPS:C10:1,2018-01-06T08:35:00Z,27.1690,-82.9260,1026.06,1111122 
COMPS,ioos:station:USF.COMPS:C10:1,2018-01-06T09:05:00Z,27.1690,-82.9260,1026.19,1111122 
COMPS,ioos:station:USF.COMPS:C10:1,2018-01-06T09:35:00Z,27.1690,-82.9260,1026.22,1111122 
COMPS,ioos:station:USF.COMPS:C10:1,2018-01-06T10:05:00Z,27.1690,-82.9260,1026.13,1111122 
COMPS,ioos:station:USF.COMPS:C10:1,2018-01-06T10:35:00Z,27.1690,-82.9260,1026.37,1111122 
COMPS,ioos:station:USF.COMPS:C10:1,2018-01-06T12:05:00Z,27.1690,-82.9260,1026.65,1111122 
COMPS,ioos:station:USF.COMPS:C10:1,2018-01-06T12:35:00Z,27.1690,-82.9260,1026.79,1111122 
COMPS,ioos:station:USF.COMPS:C10:1,2018-01-06T13:05:00Z,27.1690,-82.9260,1027.23,1111122 
COMPS,ioos:station:USF.COMPS:C10:1,2018-01-06T13:35:00Z,27.1690,-82.9260,1027.57,1111122 